Time,TemperatureF,DewpointF,PressureIn,WindDirection,WindDirectionDegrees,WindSpeedMPH,WindSpeedGustMPH,Humidity,HourlyPrecipIn,Conditions,Clouds,dailyrainin,SoftwareType,DateUTC
2013-09-26 00:12:00,31.0,29.0,-100.00,SSW,196,0.0,1.0,93,0.00,,,1.01,,2013-09-26 06:12:00,
2013-09-26 00:22:00,32.0,30.0,-100.00,SSW,196,0.0,0.0,94,0.00,,,1.01,,2013-09-26 06:22:00,
2013-09-26 00:42:00,33.0,31.0,-100.00,SSW,196,0.0,0.0,94,0.00,,,1.01,,2013-09-26 06:42:00,
2013-09-26 00:53:00,33.0,31.0,-100.00,SSW,196,0.0,0.0,94,0.00,,,1.01,,2013-09-26 06:53:00,
2013-09-26 01:11:00,32.0,30.0,-100.00,SSW,196,0.0,1.0,94,0.00,,,1.01,,2013-09-26 07:11:00,
2013-09-26 01:22:00,32.0,32.0,-100.00,SSW,196,0.0,1.0,100,0.00,,,0.99,,2013-09-26 07:22:00,
2013-09-26 01:42:00,32.0,30.0,-100.00,SSW,196,0.0,0.0,94,0.00,,,0.99,,2013-09-26 07:42:00,
2013-09-26 01:53:00,32.0,30.0,-100.00,SSW,196,0.0,1.0,94,0.00,,,0.99,,2013-09-26 07:53:00,
2013-09-26 02:11:00,33.0,32.0,-100.00,SSW,196,0.0,1.0,95,0.00,,,0.99,,2013-09-26 08:11:00,
2013-09-26 02:22:00,33.0,31.0,-100.00,SSW,196,0.0,1.0,94,0.00,,,0.95,,2013-09-26 08:22:00,
2013-09-26 02:42:00,33.0,31.0,-100.00,SSW,196,0.0,0.0,94,0.00,,,0.95,,2013-09-26 08:42:00,
2013-09-26 02:52:00,33.0,31.0,-100.00,SSW,196,0.0,0.0,94,0.00,,,0.95,,2013-09-26 08:52:00,
2013-09-26 03:11:00,33.0,31.0,-100.00,SSW,196,0.0,1.0,94,0.00,,,0.95,,2013-09-26 09:11:00,
2013-09-26 03:22:00,33.0,32.0,-100.00,SSW,199,0.0,1.0,95,0.00,,,0.86,,2013-09-26 09:22:00,
2013-09-26 03:43:00,33.0,31.0,-100.00,SSW,199,0.0,0.0,94,0.00,,,0.86,,2013-09-26 09:43:00,
2013-09-26 03:53:00,33.0,31.0,-100.00,SSW,199,0.0,0.0,94,0.00,,,0.86,,2013-09-26 09:53:00,
2013-09-26 04:12:00,33.0,31.0,-100.00,SSW,199,0.0,0.0,94,0.00,,,0.86,,2013-09-26 10:12:00,
2013-09-26 04:23:00,33.0,31.0,-100.00,SSW,203,0.0,0.0,94,0.00,,,0.73,,2013-09-26 10:23:00,
2013-09-26 04:42:00,33.0,31.0,-100.00,SSW,203,0.0,1.0,94,0.00,,,0.73,,2013-09-26 10:42:00,
2013-09-26 04:53:00,33.0,31.0,-100.00,SSW,203,0.0,0.0,94,0.00,,,0.73,,2013-09-26 10:53:00,
2013-09-26 05:12:00,33.0,32.0,-100.00,SSW,203,0.0,1.0,95,0.00,,,0.73,,2013-09-26 11:12:00,
2013-09-26 05:22:00,33.0,31.0,-100.00,SSW,203,0.0,1.0,94,0.00,,,0.62,,2013-09-26 11:22:00,
2013-09-26 05:42:00,33.0,31.0,-100.00,SSW,203,0.0,1.0,94,0.00,,,0.62,,2013-09-26 11:42:00,
2013-09-26 05:52:00,33.0,32.0,-100.00,SSW,203,0.0,1.0,95,0.00,,,0.62,,2013-09-26 11:52:00,
2013-09-26 06:11:00,33.0,31.0,-100.00,SSW,203,0.0,1.0,94,0.00,,,0.62,,2013-09-26 12:11:00,
2013-09-26 06:21:00,33.0,31.0,-100.00,SSW,203,0.0,1.0,94,0.00,,,0.59,,2013-09-26 12:21:00,
2013-09-26 06:42:00,33.0,32.0,-100.00,SSW,203,0.0,1.0,95,0.00,,,0.59,,2013-09-26 12:42:00,
2013-09-26 06:52:00,33.0,32.0,-100.00,SSW,203,0.0,0.0,95,0.00,,,0.59,,2013-09-26 12:52:00,
2013-09-26 07:11:00,33.0,32.0,-100.00,SSW,203,0.0,0.0,95,0.00,,,0.59,,2013-09-26 13:11:00,
2013-09-26 07:21:00,34.0,33.0,-100.00,SSW,203,0.0,0.0,95,0.00,,,0.53,,2013-09-26 13:21:00,
2013-09-26 07:52:00,34.0,32.0,-100.00,SSW,203,0.0,0.0,94,0.00,,,0.53,,2013-09-26 13:52:00,
2013-09-26 08:11:00,34.0,32.0,-100.00,SSW,205,0.0,0.0,94,0.00,,,0.53,,2013-09-26 14:11:00,
2013-09-26 08:22:00,34.0,32.0,-100.00,SSW,206,0.0,0.0,94,0.00,,,0.37,,2013-09-26 14:22:00,
2013-09-26 08:41:00,34.0,32.0,-100.00,SSW,206,0.0,0.0,94,0.00,,,0.37,,2013-09-26 14:41:00,
2013-09-26 08:52:00,33.0,31.0,-100.00,SSW,206,0.0,0.0,94,0.00,,,0.37,,2013-09-26 14:52:00,
2013-09-26 09:11:00,33.0,31.0,-100.00,SSW,206,0.0,0.0,94,0.00,,,0.37,,2013-09-26 15:11:00,
2013-09-26 09:22:00,33.0,31.0,-100.00,SSW,206,0.0,0.0,94,0.01,,,0.30,,2013-09-26 15:22:00,
2013-09-26 09:44:00,33.0,31.0,-100.00,SSW,206,0.0,1.0,94,0.01,,,0.30,,2013-09-26 15:44:00,
2013-09-26 09:54:00,33.0,31.0,-100.00,SSW,213,0.0,1.0,94,0.01,,,0.30,,2013-09-26 15:54:00,
2013-09-26 10:12:00,33.0,31.0,-100.00,NNW,333,0.0,1.0,94,0.01,,,0.30,,2013-09-26 16:12:00,
2013-09-26 10:24:00,33.0,31.0,-100.00,NNW,336,0.0,0.0,94,0.00,,,0.24,,2013-09-26 16:24:00,
2013-09-26 10:43:00,33.0,31.0,-100.00,NNW,340,0.0,0.0,94,0.01,,,0.25,,2013-09-26 16:43:00,
2013-09-26 10:53:00,33.0,32.0,-100.00,NNW,341,1.0,3.0,95,0.04,,,0.28,,2013-09-26 16:53:00,
2013-09-26 11:12:00,34.0,33.0,-100.00,North,9,1.0,4.0,95,0.06,,,0.30,,2013-09-26 17:12:00,
2013-09-26 11:23:00,34.0,33.0,-100.00,NNW,332,0.0,4.0,95,0.08,,,0.32,,2013-09-26 17:23:00,
2013-09-26 11:52:00,35.0,33.0,-100.00,NW,311,0.0,5.0,93,0.07,,,0.35,,2013-09-26 17:52:00,
2013-09-26 12:13:00,37.0,35.0,-100.00,North,9,0.0,3.0,93,0.06,,,0.36,,2013-09-26 18:13:00,
2013-09-26 12:21:00,37.0,35.0,-100.00,NW,324,1.0,3.0,91,0.04,,,0.36,,2013-09-26 18:21:00,
2013-09-26 12:42:00,38.0,36.0,-100.00,NW,323,0.0,3.0,91,0.02,,,0.36,,2013-09-26 18:42:00,
2013-09-26 12:52:00,38.0,35.0,-100.00,North,359,0.0,6.0,88,0.01,,,0.36,,2013-09-26 18:52:00,
2013-09-26 13:12:00,39.0,35.0,-100.00,ESE,103,2.0,7.0,86,0.00,,,0.36,,2013-09-26 19:12:00,
2013-09-26 13:22:00,40.0,35.0,-100.00,North,10,3.0,6.0,81,0.00,,,0.22,,2013-09-26 19:22:00,
2013-09-26 13:52:00,42.0,34.0,-100.00,NW,316,1.0,5.0,73,0.00,,,0.22,,2013-09-26 19:52:00,
2013-09-26 14:12:00,42.0,35.0,-100.00,North,354,1.0,4.0,75,0.00,,,0.22,,2013-09-26 20:12:00,
2013-09-26 14:22:00,42.0,36.0,-100.00,SE,128,0.0,1.0,79,0.00,,,0.15,,2013-09-26 20:22:00,
2013-09-26 14:42:00,41.0,34.0,-100.00,South,190,0.0,1.0,77,0.00,,,0.15,,2013-09-26 20:42:00,
2013-09-26 14:52:00,40.0,35.0,-100.00,ESE,106,0.0,4.0,81,0.01,,,0.16,,2013-09-26 20:52:00,
2013-09-26 15:11:00,41.0,37.0,-100.00,SSW,199,0.0,2.0,84,0.01,,,0.16,,2013-09-26 21:11:00,
2013-09-26 15:23:00,40.0,36.0,-100.00,SSW,199,0.0,2.0,84,0.01,,,0.16,,2013-09-26 21:23:00,
2013-09-26 15:54:00,41.0,35.0,-100.00,SSW,199,0.0,2.0,79,0.00,,,0.16,,2013-09-26 21:54:00,
2013-09-26 16:13:00,43.0,36.0,-100.00,SSW,199,0.0,2.0,75,0.00,,,0.16,,2013-09-26 22:13:00,
2013-09-26 16:24:00,43.0,36.0,-100.00,SSW,199,0.0,2.0,76,0.00,,,0.16,,2013-09-26 22:24:00,
2013-09-26 16:42:00,43.0,35.0,-100.00,SSW,201,1.0,3.0,72,0.00,,,0.16,,2013-09-26 22:42:00,
2013-09-26 16:54:00,42.0,35.0,-100.00,SSW,212,0.0,2.0,76,0.00,,,0.16,,2013-09-26 22:54:00,
2013-09-26 17:12:00,42.0,34.0,-100.00,SSW,212,0.0,2.0,73,0.00,,,0.16,,2013-09-26 23:12:00,
2013-09-26 17:23:00,43.0,35.0,-100.00,SE,137,1.0,4.0,73,0.00,,,0.16,,2013-09-26 23:23:00,
2013-09-26 17:53:00,43.0,34.0,-100.00,East,93,0.0,2.0,71,0.00,,,0.16,,2013-09-26 23:53:00,
2013-09-26 18:22:00,42.0,36.0,-100.00,ESE,108,0.0,1.0,79,0.00,,,0.14,,2013-09-27 00:22:00,
2013-09-26 18:42:00,42.0,36.0,-100.00,East,99,0.0,4.0,79,0.00,,,0.14,,2013-09-27 00:42:00,
2013-09-26 18:52:00,41.0,36.0,-100.00,SSW,193,0.0,1.0,81,0.00,,,0.14,,2013-09-27 00:52:00,
2013-09-26 19:11:00,41.0,36.0,-100.00,SSW,193,0.0,1.0,82,0.00,,,0.14,,2013-09-27 01:11:00,
2013-09-26 19:23:00,41.0,37.0,-100.00,SSW,193,0.0,1.0,84,0.00,,,0.14,,2013-09-27 01:23:00,
2013-09-26 19:42:00,41.0,37.0,-100.00,SSW,193,0.0,0.0,86,0.01,,,0.15,,2013-09-27 01:42:00,
2013-09-26 19:52:00,40.0,36.0,-100.00,SSW,193,0.0,1.0,87,0.01,,,0.15,,2013-09-27 01:52:00,
2013-09-26 20:12:00,39.0,36.0,-100.00,SSW,193,0.0,1.0,89,0.01,,,0.15,,2013-09-27 02:12:00,
2013-09-26 20:22:00,39.0,36.0,-100.00,SSW,193,0.0,0.0,89,0.01,,,0.15,,2013-09-27 02:22:00,
2013-09-26 20:42:00,39.0,36.0,-100.00,SSW,193,0.0,1.0,90,0.00,,,0.15,,2013-09-27 02:42:00,
2013-09-26 20:53:00,39.0,36.0,-100.00,SSW,193,0.0,0.0,89,0.00,,,0.15,,2013-09-27 02:53:00,
2013-09-26 21:21:00,38.0,35.0,-100.00,SSW,193,0.0,1.0,89,0.00,,,0.15,,2013-09-27 03:21:00,
2013-09-26 21:55:00,38.0,34.0,-100.00,SW,224,1.0,4.0,86,0.00,,,0.15,,2013-09-27 03:55:00,
2013-09-26 22:24:00,37.0,34.0,-100.00,SSW,199,0.0,1.0,89,0.01,,,0.16,,2013-09-27 04:24:00,
2013-09-26 22:44:00,37.0,34.0,-100.00,SSW,199,0.0,1.0,90,0.01,,,0.16,,2013-09-27 04:44:00,
2013-09-26 22:54:00,37.0,34.0,-100.00,SW,216,1.0,5.0,90,0.02,,,0.17,,2013-09-27 04:54:00,
2013-09-26 23:12:00,36.0,33.0,-100.00,SSE,159,0.0,1.0,90,0.02,,,0.17,,2013-09-27 05:12:00,
2013-09-26 23:23:00,36.0,34.0,-100.00,SSE,159,0.0,0.0,91,0.01,,,0.17,,2013-09-27 05:23:00,
2013-09-26 23:52:00,36.0,34.0,-100.00,SSE,159,0.0,1.0,92,0.00,,,0.17,,2013-09-27 05:52:00,